USA 164 (MILSTAR-2 3)

Last updated on Jan. 26, 2020, 4:40 a.m. UTC

1 27168U 02001A   20025.20106567  .00000093  00000-0  00000+0 0  9994
2 27168   8.6250  32.5235 0002161 278.3514 264.3863  1.00272329  8238
UTC
Height (km)
Latitude
Longitude
Inclination
Orbital Period
UTC large
Height (km)
Speed (km/s)
/
Latitude / Longitude
Inclination (degrees)
Orbital Period (minutes)
Azimuth
Elevation
Range (km)
Doppler Factor
iOS Compass Heading
iOS Angle

Next 30 passes for location: Hong Kong

Rise time Rise Azimuth (degrees) Set time Set Azimuth (degrees) Duration Max altitude (degrees)

No matching passes for this satellites